Starlink 5536

operational
NORAD ID: 57062 Int'l Des: 2023-088 Owner: SPXS Country: US Constellation: starlink
LEOCIRCULAR

About Starlink 5536

Description loading...

Live Position

Loading 3D Globe...

Upcoming Passes

Altitude History

Altitude vs Time

uPlot chart will show altitude changes over time

Two-Line Element Set

1 57062U 23088Q 25305.65846212 -.00000248 00000-0 -32508-5 0 9999
2 57062 43.0046 69.8635 0001372 273.7871 86.2815 15.02529047131262
Epoch: Nov 1, 2025 • Age: 19 hours

Current Status

Altitude 558.4 km
Velocity 7.58 km/s
Sub-Earth Point 3.97°N, 136.83°W
Launch Date Jun 22, 2023
Age 2.3 years
Type internet

Technical Details

Classification Payload
Mass 305.00 kg
Dry Mass 290.00 kg
Total Mass 305.00 kg
Length 0.20 m
Diameter 2.80 m
Span 9.00 m
Shape Box + pan
Manufacturer SPXS
Bus Type Starlink
Phase Status In Orbit
Owner/State SPXS/US

Large Constellations

Loading constellations...